GW3570 Weather Reports


Display with metric or nautical units.
time (UTC)temp
F
wind
direction
speed
MPH
gust
MPH
rain 1hr
in
rain 24hr
in
rain mn
in
humidity
%
barometer
mb
20260504160320 76 243 4.0 6.0 0.00 0.00 0.00 53 1006.1
20260504150745 74 199 6.0 8.0 0.00 0.00 0.00 49 1005.9
20260504150242 73 241 8.0 8.0 0.00 0.00 0.00 52 1006.3
20260504141212 71 209 8.0 9.0 0.00 0.00 0.00 51 1006.7
20260504140708 71 206 8.0 9.0 0.00 0.00 0.00 52 1006.8
20260504140204 70 203 4.0 7.0 0.00 0.00 0.00 54 1006.9
20260504130632 66 190 2.0 3.0 0.00 0.00 0.00 58 1007.2
20260504130129 66 193 4.0 5.0 0.00 0.00 0.00 58 1007.3
20260504110520 64 181 3.0 3.0 0.00 0.00 0.00 60 1007.5
20260504100443 62 176 0.0 1.0 0.00 0.00 0.00 66 1008.2
20260504081841 64 186 0.0 0.0 0.00 0.00 0.00 61 1008.1
20260504081337 65 157 0.0 0.0 0.00 0.00 0.00 61 1008.3
20260504080833 66 209 0.0 0.0 0.00 0.00 0.00 59 1008.4
20260504080330 65 217 0.0 1.0 0.00 0.00 0.00 59 1008.4
20260504070257 67 203 0.0 0.0 0.00 0.00 0.00 57 1008.8
20260504060218 69 216 4.0 5.0 0.00 0.00 0.00 51 1009.0
20260504050646 70 155 2.0 2.0 0.00 0.00 0.00 53 1009.1
20260504050143 69 202 6.0 7.0 0.00 0.00 0.00 51 1009.3
20260504045641 69 197 4.0 5.0 0.00 0.00 0.00 51 1008.9
20260504045140 69 181 3.0 3.0 0.00 0.00 0.00 55 1009.0
20260504044638 69 193 3.0 3.0 0.00 0.00 0.00 51 1009.2
20260504044134 69 199 5.0 6.0 0.00 0.00 0.00 50 1009.2
20260504043632 69 192 3.0 3.0 0.00 0.00 0.00 53 1009.3
20260504043129 69 211 3.0 3.0 0.00 0.00 0.00 52 1009.4
20260504042626 69 150 4.0 5.0 0.00 0.00 0.00 53 1009.4
20260504042123 69 200 3.0 3.0 0.00 0.00 0.00 51 1009.2
20260504041618 69 191 2.0 2.0 0.00 0.00 0.00 54 1009.7
20260504041115 69 207 4.0 5.0 0.00 0.00 0.00 51 1009.5
20260504040612 69 208 3.0 3.0 0.00 0.00 0.00 53 1009.5
20260504040109 69 172 2.0 2.0 0.00 0.00 0.00 55 1009.5
20260504035606 69 206 1.0 2.0 0.00 0.00 0.00 53 1009.5
20260504035102 69 200 4.0 5.0 0.00 0.00 0.00 52 1009.6
20260504034600 69 198 2.0 2.0 0.00 0.00 0.00 52 1009.5
20260504034056 69 175 1.0 2.0 0.00 0.00 0.00 53 1009.7
20260504033555 69 185 2.0 2.0 0.00 0.00 0.00 52 1010.0
20260504033052 69 202 2.0 2.0 0.00 0.00 0.00 52 1009.9
20260504032549 69 203 2.0 2.0 0.00 0.00 0.00 53 1010.1
20260504032046 69 195 2.0 2.0 0.00 0.00 0.00 51 1010.0
20260504031543 70 175 2.0 2.0 0.00 0.00 0.00 56 1010.1
20260504031039 69 189 1.0 2.0 0.00 0.00 0.00 54 1010.2
20260504030537 69 202 3.0 3.0 0.00 0.00 0.00 55 1009.8
20260504030032 68 198 0.0 1.0 0.00 0.00 0.00 59 1010.0
20260504025529 69 208 0.0 0.0 0.00 0.00 0.00 57 1010.0
20260504025026 69 193 0.0 0.0 0.00 0.00 0.00 55 1010.0
20260504024523 70 199 0.0 0.0 0.00 0.00 0.00 54 1010.0
20260504024020 70 185 0.0 0.0 0.00 0.00 0.00 54 1010.1
20260504023516 70 208 0.0 0.0 0.00 0.00 0.00 54 1010.2
20260504023012 71 171 1.0 1.0 0.00 0.00 0.00 52 1010.2
20260504022508 71 188 0.0 0.0 0.00 0.00 0.00 51 1010.0
20260504022005 71 205 3.0 3.0 0.00 0.00 0.00 51 1009.9
20260504021502 71 183 1.0 1.0 0.00 0.00 0.00 53 1010.0
20260504020959 71 184 2.0 2.0 0.00 0.00 0.00 51 1010.0
20260504020456 71 187 0.0 1.0 0.00 0.00 0.00 51 1009.9
20260504015953 71 203 1.0 2.0 0.00 0.00 0.00 52 1009.9
20260504015449 71 211 1.0 1.0 0.00 0.00 0.00 49 1010.0
20260504014945 71 165 2.0 2.0 0.00 0.00 0.00 49 1009.8
20260504014441 71 187 0.0 1.0 0.00 0.00 0.00 52 1009.8
20260504013938 71 175 0.0 0.0 0.00 0.00 0.00 50 1009.8
20260504013437 71 169 0.0 0.0 0.00 0.00 0.00 52 1009.6
20260504012932 71 167 0.0 0.0 0.00 0.00 0.00 50 1009.9
20260504012430 72 184 0.0 0.0 0.00 0.00 0.00 51 1009.9
20260504011927 73 184 0.0 0.0 0.00 0.00 0.00 49 1009.8
20260504011424 72 198 0.0 0.0 0.00 0.00 0.00 48 1010.0
20260504010920 72 195 0.0 0.0 0.00 0.00 0.00 50 1009.9
20260504010416 73 205 0.0 0.0 0.00 0.00 0.00 48 1009.8
20260504005913 73 206 2.0 3.0 0.00 0.00 0.00 48 1010.0
20260504005409 74 196 2.0 2.0 0.00 0.00 0.00 46 1010.0
20260504004907 73 207 2.0 2.0 0.00 0.00 0.00 45 1009.9
20260504004405 74 206 1.0 1.0 0.00 0.00 0.00 50 1009.8
20260504003901 75 236 2.0 2.0 0.00 0.00 0.00 48 1009.9
20260504003358 75 248 3.0 3.0 0.00 0.00 0.00 46 1009.8
20260504002854 75 252 5.0 6.0 0.00 0.00 0.00 42 1009.8
20260504002351 76 256 6.0 7.0 0.00 0.00 0.00 44 1009.9
20260504001849 76 237 5.0 6.0 0.00 0.00 0.00 42 1010.1
20260504001346 77 239 3.0 3.0 0.00 0.00 0.00 44 1010.1
20260504000843 77 247 3.0 3.0 0.00 0.00 0.00 41 1010.0
20260504000340 77 224 6.0 7.0 0.00 0.00 0.00 38 1010.1
20260503235837 78 204 3.0 5.0 0.00 0.00 0.00 41 1009.9
20260503235335 78 238 4.0 5.0 0.00 0.00 0.00 39 1010.0
20260503234832 78 244 5.0 7.0 0.00 0.00 0.00 40 1009.8
20260503234330 78 243 5.0 6.0 0.00 0.00 0.00 40 1009.9
20260503233828 78 208 4.0 5.0 0.00 0.00 0.00 38 1010.1
20260503233324 78 239 3.0 3.0 0.00 0.00 0.00 41 1010.1
20260503232820 79 244 7.0 8.0 0.00 0.00 0.00 37 1009.9
20260503232317 79 256 6.0 7.0 0.00 0.00 0.00 39 1010.0
20260503231815 79 256 8.0 9.0 0.00 0.00 0.00 36 1010.1
20260503231312 79 230 7.0 8.0 0.00 0.00 0.00 38 1010.1
20260503230808 79 204 7.0 9.0 0.00 0.00 0.00 36 1010.1
20260503230305 79 247 9.0 11.0 0.00 0.00 0.00 38 1009.9
20260503225803 79 222 4.0 5.0 0.00 0.00 0.00 40 1009.9
20260503225258 80 234 5.0 6.0 0.00 0.00 0.00 35 1010.2
20260503224755 80 246 5.0 6.0 0.00 0.00 0.00 38 1010.1
20260503224253 80 267 5.0 6.0 0.00 0.00 0.00 36 1010.1
20260503223750 80 312 7.0 9.0 0.00 0.00 0.00 36 1010.2
20260503223248 80 220 4.0 5.0 0.00 0.00 0.00 40 1010.0
20260503222744 81 239 5.0 8.0 0.00 0.00 0.00 38 1010.0
20260503222242 81 323 8.0 11.0 0.00 0.00 0.00 32 1009.9
20260503221740 81 210 6.0 7.0 0.00 0.00 0.00 37 1010.0
20260503221237 80 271 9.0 10.0 0.00 0.00 0.00 34 1010.0
20260503220733 81 262 5.0 5.0 0.00 0.00 0.00 42 1009.9
20260503220231 80 226 6.0 7.0 0.00 0.00 0.00 39 1010.1
20260503215727 80 227 6.0 7.0 0.00 0.00 0.00 35 1010.1
20260503215225 81 257 7.0 8.0 0.00 0.00 0.00 36 1009.9
20260503214723 81 113 6.0 8.0 0.00 0.00 0.00 39 1010.2
20260503214219 80 247 5.0 6.0 0.00 0.00 0.00 39 1010.1
20260503213717 80 221 5.0 6.0 0.00 0.00 0.00 39 1010.3
20260503213214 80 217 7.0 9.0 0.00 0.00 0.00 36 1010.5
20260503212711 80 232 5.0 7.0 0.00 0.00 0.00 35 1010.6
20260503212209 80 233 8.0 9.0 0.00 0.00 0.00 39 1010.6
20260503211706 80 253 6.0 7.0 0.00 0.00 0.00 35 1010.6
20260503211201 80 240 7.0 9.0 0.00 0.00 0.00 37 1010.9
20260503210657 80 224 7.0 9.0 0.00 0.00 0.00 38 1010.8
20260503210154 80 211 5.0 6.0 0.00 0.00 0.00 36 1011.0
20260503205650 80 267 11.0 11.0 0.00 0.00 0.00 39 1010.9
20260503205147 80 235 6.0 8.0 0.00 0.00 0.00 40 1010.9
20260503204643 80 224 5.0 6.0 0.00 0.00 0.00 35 1011.1
20260503204141 80 204 4.0 5.0 0.00 0.00 0.00 44 1011.3
20260503203638 80 216 5.0 7.0 0.00 0.00 0.00 38 1011.3
20260503203136 80 236 7.0 8.0 0.00 0.00 0.00 35 1011.4
20260503202632 80 174 7.0 10.0 0.00 0.00 0.00 38 1011.4
20260503202131 80 220 9.0 11.0 0.00 0.00 0.00 37 1011.4
20260503201628 80 230 7.0 8.0 0.00 0.00 0.00 42 1011.7
20260503201125 79 220 6.0 8.0 0.00 0.00 0.00 38 1011.7
20260503200621 79 193 5.0 6.0 0.00 0.00 0.00 43 1011.7
20260503200118 79 204 5.0 7.0 0.00 0.00 0.00 39 1011.9
20260503195610 78 237 6.0 7.0 0.00 0.00 0.00 40 1012.2
20260503195106 78 222 5.0 7.0 0.00 0.00 0.00 38 1012.3
20260503194603 78 183 10.0 11.0 0.00 0.00 0.00 41 1012.2
20260503194058 78 194 11.0 13.0 0.00 0.00 0.00 38 1012.4
20260503193555 79 225 4.0 6.0 0.00 0.00 0.00 44 1012.3
20260503193050 78 222 6.0 7.0 0.00 0.00 0.00 43 1012.6
20260503192546 78 206 8.0 9.0 0.00 0.00 0.00 40 1012.7
20260503192042 78 180 7.0 9.0 0.00 0.00 0.00 46 1012.7
20260503191539 78 262 5.0 7.0 0.00 0.00 0.00 46 1012.7
20260503191036 78 217 6.0 7.0 0.00 0.00 0.00 45 1013.1
20260503190533 78 252 7.0 8.0 0.00 0.00 0.00 43 1013.2
20260503190030 78 196 7.0 8.0 0.00 0.00 0.00 42 1013.2
20260503185527 77 229 6.0 7.0 0.00 0.00 0.00 43 1013.1
20260503185026 77 183 8.0 9.0 0.00 0.00 0.00 45 1013.4
20260503184523 77 192 5.0 7.0 0.00 0.00 0.00 46 1013.4
20260503184020 77 203 7.0 8.0 0.00 0.00 0.00 46 1013.5
20260503183516 76 192 7.0 9.0 0.00 0.00 0.00 48 1013.6
20260503183013 76 259 9.0 13.0 0.00 0.00 0.00 44 1013.7
20260503182512 76 217 5.0 6.0 0.00 0.00 0.00 45 1013.8
20260503182009 76 144 6.0 7.0 0.00 0.00 0.00 48 1014.0
20260503181506 75 225 6.0 7.0 0.00 0.00 0.00 45 1013.8
20260503181002 75 197 6.0 6.0 0.00 0.00 0.00 46 1014.0
20260503180500 75 223 8.0 10.0 0.00 0.00 0.00 46 1014.2
20260503175956 75 231 7.0 8.0 0.00 0.00 0.00 46 1014.5
20260503175455 74 226 5.0 6.0 0.00 0.00 0.00 50 1014.7
20260503174950 74 243 9.0 10.0 0.00 0.00 0.00 45 1014.6
20260503174449 74 206 13.0 16.0 0.00 0.00 0.00 43 1014.8
20260503173944 74 233 6.0 7.0 0.00 0.00 0.00 46 1014.9
20260503173440 74 230 4.0 5.0 0.00 0.00 0.00 46 1015.0
20260503172937 74 216 5.0 6.0 0.00 0.00 0.00 47 1015.0
20260503172435 74 233 6.0 7.0 0.00 0.00 0.00 45 1015.0
20260503171931 73 222 7.0 9.0 0.00 0.00 0.00 44 1015.1
20260503171428 73 202 7.0 8.0 0.00 0.00 0.00 45 1015.2
20260503170925 73 187 7.0 9.0 0.00 0.00 0.00 43 1015.1
20260503170421 72 199 9.0 10.0 0.00 0.00 0.00 44 1015.3